WetterOnline ( https://www.wetteronline.de )

Wetter aktuell Feuchtwangen

Aktuelles Wetter: Feuchtwangen-Heilbronn (475m)

6-stündlich | Neueste Meldungen
Ortszeit Temperatur Wetter
Mo, 03.10. 20:00 8.2° C wolkig
Mo, 03.10. 14:00 12.6° C bewölkt
Mo, 03.10. 8:00 8.7° C bewölkt
Mo, 03.10. 2:00 9.7° C bewölkt
So, 02.10. 20:00 10.8° C Sprühregen
So, 02.10. 14:00 11.3° C Regen
So, 02.10. 8:00 11.3° C leichter Regen
So, 02.10. 2:00 11.7° C bedeckt
Ortszeit Temperatur Wetter
Mo, 03.10. 22:30 5.6° C Nebel
Mo, 03.10. 22:20 5.6° C Nebel
Mo, 03.10. 22:10 5.4° C Nebel
Mo, 03.10. 22:00 6.1° C Nebel
Mo, 03.10. 21:50 6.1° C Dunst
Mo, 03.10. 21:40 6.2° C Dunst
Mo, 03.10. 21:30 6.6° C leicht bewölkt
Mo, 03.10. 21:00 7.6° C wolkig
Mo, 03.10. 20:30 7.3° C wolkig
Mo, 03.10. 20:00 8.2° C wolkig
Mo, 03.10. 19:30 9.1° C wolkig
Ortszeit Relative Feuchte Sichtweite
Mo, 03.10. 20:00 90% 35 km
Mo, 03.10. 14:00 64% 55 km
Mo, 03.10. 8:00 95% 13 km
Mo, 03.10. 2:00 96% 15 km
So, 02.10. 20:00 97% 35 km
So, 02.10. 14:00 97% 5.0 km
So, 02.10. 8:00 96% 14 km
So, 02.10. 2:00 93% 40 km
Ortszeit Relative Feuchte Sichtweite
Mo, 03.10. 22:30 99% 0.4 km
Mo, 03.10. 22:20 99% -
Mo, 03.10. 22:10 99% -
Mo, 03.10. 22:00 100% 3.0 km
Mo, 03.10. 21:50 100% -
Mo, 03.10. 21:40 99% -
Mo, 03.10. 21:30 98% 21 km
Mo, 03.10. 21:00 97% 35 km
Mo, 03.10. 20:30 95% 30 km
Mo, 03.10. 20:00 90% 35 km
Mo, 03.10. 19:30 87% 45 km
Ortszeit Niederschlagsmenge Niederschlagsart
Mo, 03.10. 20:00 0.0 l/m2 in 12 Std. -
Mo, 03.10. 14:00 0.0 l/m2 in 6 Std. -
Mo, 03.10. 8:00 0.1 l/m2 in 12 Std. -
Mo, 03.10. 2:00 0.1 l/m2 in 6 Std. Sprühregen
So, 02.10. 20:00 22 l/m2 in 12 Std. Regen
So, 02.10. 14:00 11 l/m2 in 6 Std. Regen
So, 02.10. 8:00 2 l/m2 in 12 Std. Regen
So, 02.10. 2:00 0.9 l/m2 in 6 Std. Regen
Ortszeit Niederschlagsmenge Niederschlagsart
Mo, 03.10. 22:30 0.0 l/m2 in 1 Std. -
Mo, 03.10. 22:20 keine Meldung -
Mo, 03.10. 22:10 keine Meldung -
Mo, 03.10. 22:00 0.0 l/m2 in 1 Std. -
Mo, 03.10. 21:50 keine Meldung -
Mo, 03.10. 21:40 keine Meldung -
Mo, 03.10. 21:30 0.0 l/m2 in 1 Std. -
Mo, 03.10. 21:00 0.0 l/m2 in 1 Std. -
Mo, 03.10. 20:30 0.0 l/m2 in 1 Std. -
Mo, 03.10. 20:00 0.0 l/m2 in 1 Std. -
Mo, 03.10. 19:30 0.0 l/m2 in 1 Std. -
Ortszeit Stärke Spitze Richtung
km/h Bft. km/h Grad Sektor
Mo, 03.10. 20:00 2 1 20 130° SO
Mo, 03.10. 14:00 11 2 18 310° NW
Mo, 03.10. 8:00 6 1 19 310° NW
Mo, 03.10. 2:00 7 2 22 280° W
So, 02.10. 20:00 11 2 22 270° W
So, 02.10. 14:00 11 2 25 280° W
So, 02.10. 8:00 11 2 29 250° W
So, 02.10. 2:00 13 3 35 250° W
Ortszeit Stärke Spitze Richtung
km/h Bft. km/h Grad Sektor
Mo, 03.10. 22:30 0 0 4 - -
Mo, 03.10. 22:20 0 0 - 90° O
Mo, 03.10. 22:10 0 0 - 330° NW
Mo, 03.10. 22:00 0 0 7 - -
Mo, 03.10. 21:50 0 0 - 130° SO
Mo, 03.10. 21:40 0 0 - 160° S
Mo, 03.10. 21:30 0 0 7 - -
Mo, 03.10. 21:00 6 1 7 100° O
Mo, 03.10. 20:30 4 1 7 50° NO
Mo, 03.10. 20:00 2 1 4 130° SO
Mo, 03.10. 19:30 4 1 4 280° W
Ortszeit Untergrenze Bedeckung Gattung
total tief tief mittel hoch
Mo, 03.10. 20:00 1290 m 7/8 3/8 - - -
Mo, 03.10. 14:00 1080 m 7/8 7/8 - - -
Mo, 03.10. 8:00 240 m 7/8 7/8 - - -
Mo, 03.10. 2:00 330 m 7/8 7/8 - - -
So, 02.10. 20:00 270 m 8/8 8/8 - - -
So, 02.10. 14:00 240 m 7/8 7/8 - - -
So, 02.10. 8:00 270 m 8/8 8/8 - - -
So, 02.10. 2:00 300 m 8/8 8/8 - - -
Ortszeit Bedeckungsgrad in Achtel und Wolkenuntergrenze
Mo, 03.10. 22:30 1(8100m)
Mo, 03.10. 22:20 1(8100m)
Mo, 03.10. 22:10 1
Mo, 03.10. 22:00 2(8100m)
Mo, 03.10. 21:50 2(8100m)
Mo, 03.10. 21:40 3
Mo, 03.10. 21:30 6(7800m)
Mo, 03.10. 21:00 4(7500m) 7(8100m) 7(9000m)
Mo, 03.10. 20:30 8(7500m) 8(8700m) 8(9000m)
Mo, 03.10. 20:00 3(1290m) 6(7500m) 7(8100m)
Mo, 03.10. 19:30 1(1290m) 8(8400m) 8(9000m)
Ortszeit Luftdruck NN (hPa) Tendenz (hPa in 3 Std.)
Mo, 03.10. 20:00 1027 - 0,3
Mo, 03.10. 14:00 1027 - 0,2
Mo, 03.10. 8:00 1027 + 0,7
Mo, 03.10. 2:00 1025 + 1,3
So, 02.10. 20:00 1021 + 1,0
So, 02.10. 14:00 1020 - 0,1
So, 02.10. 8:00 1020 + 0,1
So, 02.10. 2:00 1019 + 2,1
Ortszeit Luftdruck NN (hPa) Tendenz (hPa in 3 Std.)
Mo, 03.10. 22:30 1028 - 0,2
Mo, 03.10. 22:20 1028 keine Meldung
Mo, 03.10. 22:10 1028 keine Meldung
Mo, 03.10. 22:00 1028 0,0
Mo, 03.10. 21:50 1028 keine Meldung
Mo, 03.10. 21:40 1028 keine Meldung
Mo, 03.10. 21:30 1027 - 0,2
Mo, 03.10. 21:00 1027 - 0,3
Mo, 03.10. 20:30 1028 - 0,1
Mo, 03.10. 20:00 1027 - 0,3
Mo, 03.10. 19:30 1027 - 0,2
Ortszeit Schneehöhe (cm)
Mo, 03.10. 20:00 0
Mo, 03.10. 14:00 0
Mo, 03.10. 8:00 0
Mo, 03.10. 2:00 0
So, 02.10. 20:00 0
So, 02.10. 14:00 0
So, 02.10. 8:00 0
So, 02.10. 2:00 0
Ortszeit Schneehöhe (cm)
Mo, 03.10. 22:30 0
Mo, 03.10. 22:20 0
Mo, 03.10. 22:10 0
Mo, 03.10. 22:00 0
Mo, 03.10. 21:50 0
Mo, 03.10. 21:40 0
Mo, 03.10. 21:30 0
Mo, 03.10. 21:00 0
Mo, 03.10. 20:30 0
Mo, 03.10. 20:00 0
Mo, 03.10. 19:30 0
Link zu dieser Seite / Seite empfehlen

Das Wetter in ...